ONEWEB-0080, 45426

Orbit data source: Space-Track

ONEWEB-0080, 45426 is a payload satellite owned by One Web (UK) in LEO that was launched on Sat, 21 Mar 2020 UTC via a SOYUZ-2-1B launch vehicle from the Tyuratam Missile And Space Complex (TTMTR). Payload-class satellites include a variety of spacecraft equipped with specific instruments for various scientific and technological missions. These include communications satellites like Starlink; space stations such as the ISS; scientific satellites like the Hubble; Earth observation satellites from companies like Planet Labs, Umbra, and HawkEye 360; GPS; miniature CubeSats for education and research; and military/defense satellites.

Loading next visibility...
Identifier
45426, 2020-020C
Orbit
LEO
Last TLE update
18 hours ago
Origin
Manufacturer
One Web
Mission
Operational Commercial Communications
Bus & Motor
ARROW, Unknown motor
Mass
148 kg wet, ~140 kg dry
Launch date (UTC)
2020-03-21 (5 years ago)
Launch vehicle
SOYUZ-2-1B
Launch site
Tyuratam Missile And Space Complex (TTMTR)
Object type
Payload
Rocket body
Debris
Shape & HBR
Trap Box + 2 Pan, 5 m
Radar Cross Section
2.957 m², Large (>1 m²)

Expand to show TLE details & history

TLE from 18 hours ago
0 ONEWEB-0080
1 45426U 20020C   25185.96672011  .00000318  00000-0  86203-3 0  9992
2 45426  87.8835  90.2715 0002253  82.6108 277.5276 13.11415858257190
Epoch: 2025-07-04T23:12Z
TLE epoch observation values (Epoch: 2025-07-04T23:12:04.617Z)
Latitude
-0.00001°
Longitude
179.04073°
Altitude
1,220.352 km
Speed
7.244 km/s
True Right ascension
06h 01m 05s
True Declination
0° 00' 00"
Sunlit
Object was in daylight at epoch
Visualization orbit readout
Latitude
20.38564°
Longitude
179.6707°
Altitude
1,219.36 km
Speed
7.247 km/s
Apparent Right ascension
07h 09m 00s
Apparent Declination
-31° 17' 22"
Sunlit
Object is in daylight
Visualization observer readout
Local Sidereal Time
05:32:20
Azimuth
158.728° S
Elevation
15.351°
Doppler factor
1
Orbital elements
Apogee altitude
1,216.516 km
Perigee altitude
1,213.094 km
Semi-major axis
7,592.942 km
Eccentricity
0.00023
Inclination
87.8835°
RAAN
90.2715°
Arg. of periapsis
82.6108°
True anomaly
Unknown
Mean anomaly
277.5276°
Eccentric anomaly
Unknown
Mean motion
3.28041 °/min
Orbital period
109.74 mins
BSTAR
0.00086203
Loading maneuver chart data...
Loading SW <> Apogee altitude chart data...
Loading historical data...
Loading historical data...
Loading historical data...
Loading historical data...
Loading historical data...
Loading historical data...
Loading historical data...

ONEWEB-0080 Visibility forecast

Observer location: undefined°, undefined°

Span
Click to sort rows by Start time (UTC) header in descending order
Start Az.
Max El. time (UTC)
Max El. Az.
Max El.
End time (UTC)
End Az.
13 mins2025-07-05 17:36:56.433Z158.809° S2025-07-05 17:42:56.433Z86.505° E40.268°2025-07-05 17:49:56.433Z9.041° NNE
10 mins2025-07-05 19:28:56.433Z238.878° WSW2025-07-05 19:32:56.433Z278.578° WNW22.887°2025-07-05 19:38:56.433Z335.024° NNW
12 mins2025-07-06 05:06:56.433Z16.253° NNE2025-07-06 05:12:56.433Z93.151° ESE35.658°2025-07-06 05:18:56.433Z153.942° SSE
11 mins2025-07-06 06:56:56.433Z334.766° NNW2025-07-06 07:01:56.433Z283.88° WNW27.543°2025-07-06 07:07:56.433Z224.595° SW
11 mins2025-07-06 17:25:56.433Z152.083° SSE2025-07-06 17:30:56.433Z93.533° ESE37.948°2025-07-06 17:36:56.433Z14.409° NNE
|